Temp
63 62 62 62 62 62 62 62 63 63 63 63 63 63 63 63 63 72 83 93 90 81 80 93 91 92 93 89 95 94 72 70 76 76 76 84 79 84 86 79 79 79 73 73 76
62 62 62 62 62 62 62 62 62 62 62 62 62 63 63 63 73 82 92 84 82 80 93 93 92 94 84 86 87 78 73 78 86 85 85 84 81 81 76 73 70 70 75 78 77
62 62 62 62 62 62 62 62 62 62 62 62 62 63 63 63 76 90 83 84 81 80 95 96 96 93 86 87 82 75 74 85 87 88 88 82 82 83 75 68 70 67 72 76 75
61 61 61 61 61 62 62 62 62 61 61 62 62 63 63 72 72 95 83 82 81 88 94 94 92 85 83 79 83 81 87 89 87 89 88 82 85 81 78 74 77 75 76 75 73
61 61 61 61 61 61 61 61 61 61 61 62 62 63 70 71 81 98 83 83 88 93 92 92 88 87 86 87 91 84 86 88 89 89 86 86 80 77 75 79 80 79 77 75 76
60 60 60 60 60 60 61 61 61 61 61 62 63 63 67 69 96 102 93 92 96 93 93 93 91 94 90 88 84 86 88 86 87 87 86 80 80 78 76 80 78 77 76 77 75
60 60 60 60 60 60 60 60 60 61 62 63 64 71 74 76 97 98 95 96 99 97 94 98 99 90 91 84 90 86 81 84 85 85 84 83 74 71 77 79 76 77 77 77 76
59 59 59 59 59 60 59 59 60 61 63 64 66 69 66 92 95 95 96 95 99 99 98 100 99 91 82 84 82 77 73 65 84 86 85 80 64 76 79 77 74 77 78 79 79
59 59 59 59 59 59 58 59 61 63 65 66 63 64 69 91 87 92 93 93 96 97 97 107 95 83 84 73 69 67 61 64 74 87 86 80 68 77 80 76 74 76 77 79 79
58 58 58 58 58 58 58 60 64 65 68 79 80 68 79 82 92 96 96 98 94 93 92 90 84 75 75 69 56 64 65 64 66 79 80 76 72 77 79 78 76 76 77 77 78
58 58 58 58 58 57 57 62 69 63 67 70 73 77 85 94 97 94 97 94 92 87 76 83 72 68 73 76 79 75 72 65 72 83 77 73 73 76 80 79 76 76 76 76 77
58 57 57 57 57 58 56 61 74 75 65 80 81 82 88 91 84 93 97 84 82 76 80 76 72 82 87 82 81 77 71 67 74 83 76 72 75 79 81 80 80 78 78 79 79
57 57 57 56 57 61 66 70 82 81 63 73 80 80 83 85 81 85 91 87 80 76 78 73 79 90 87 86 79 77 72 71 73 79 81 77 71 76 82 84 83 83 82 83 81
57 57 56 55 60 61 64 77 81 81 53 66 73 79 84 86 79 94 96 88 82 77 80 78 87 86 84 84 80 71 84 82 80 74 64 81 57 71 78 78 82 81 82 83 83
57 56 56 55 53 58 68 76 79 72 42 77 77 91 86 79 83 86 96 88 79 80 78 76 81 82 81 84 87 81 88 87 83 73 69 74 66 68 77 73 78 81 83 85 84
56 56 55 59 60 65 71 72 70 50 45 72 84 79 76 79 82 88 88 89 89 81 82 81 90 87 85 91 92 92 85 83 76 69 58 69 66 67 73 76 80 84 86 87 85
55 55 54 60 53 66 67 63 46 45 72 69 73 79 75 73 77 80 79 76 73 67 68 79 82 88 92 83 88 83 72 58 55 56 56 69 66 67 81 85 86 84 86 88 88
55 54 56 63 65 67 64 50 39 60 62 79 79 78 72 76 76 78 75 72 79 74 69 66 66 82 90 83 77 76 72 59 52 53 62 70 63 72 88 90 91 90 90 90 89
54 59 62 67 70 67 53 41 47 58 70 71 73 72 71 77 77 75 74 74 79 80 68 67 68 87 90 90 85 74 72 76 63 62 62 70 73 81 89 88 90 89 90 88 90
51 54 57 68 70 65 50 43 52 65 70 69 62 71 67 74 73 72 72 79 79 84 83 73 63 81 88 89 88 79 80 66 62 52 50 67 68 66 75 82 87 88 88 89 90
50 52 65 74 70 56 44 46 55 63 64 61 60 58 62 64 74 73 73 80 84 83 85 80 67 74 84 79 75 73 72 67 67 63 55 54 65 84 79 81 84 88 90 90 90
53 45 68 73 52 53 47 54 56 59 64 62 63 62 62 66 64 70 74 79 88 87 77 82 69 66 74 82 87 79 74 70 58 59 60 61 63 88 86 85 86 86 91 91 93
47 50 66 66 40 41 54 56 59 58 59 60 61 66 68 62 59 70 79 88 89 85 79 82 73 61 65 77 78 78 77 72 69 64 60 58 63 85 85 84 85 85 86 91 92
48 43 49 53 53 47 44 46 53 63 61 62 61 64 62 60 66 66 73 86 89 88 81 82 73 65 64 67 76 73 79 78 72 61 61 64 72 77 78 82 83 85 85 86 90
50 41 44 36 42 45 48 48 46 52 63 64 59 60 59 55 60 64 73 79 88 84 82 80 70 73 72 79 80 80 80 80 72 75 64 73 72 77 79 83 84 85 85 86 84
43 40 45 42 46 45 44 43 49 55 58 58 57 62 64 59 63 63 66 64 70 85 80 83 68 73 70 78 81 79 82 82 81 80 77 80 74 82 89 87 84 84 84 83 82
52 52 45 45 46 39 41 47 50 56 58 64 63 64 63 67 73 72 73 73 73 72 78 78 73 65 64 74 74 66 78 81 81 80 83 73 76 86 83 85 81 81 84 84 83
MSLP
1018.57 1018.11 1017.68 1017.19 1016.66 1016.10 1015.54 1014.95 1014.38 1013.86 1013.32 1012.82 1012.32 1012.03 1011.41 1010.87 1009.64 1009.01 1007.59 1005.08 1004.76 1004.42 1005.22 1004.90 1004.93 1004.44 1004.33 1003.94 1003.68 1004.44 1004.65 1004.06 1003.68 1003.78 1004.93 1005.47 1006.30 1007.84 1008.63 1009.94 1011.11 1012.15 1013.75 1015.26 1016.18
1019.05 1018.50 1017.87 1017.29 1016.67 1016.17 1015.60 1015.00 1014.39 1013.82 1013.23 1012.62 1012.10 1011.67 1011.30 1010.83 1009.75 1007.43 1004.52 1004.41 1004.47 1004.54 1004.75 1004.64 1004.24 1003.81 1004.36 1003.32 1003.31 1004.09 1004.15 1003.02 1002.97 1003.21 1004.06 1005.12 1006.07 1007.62 1009.24 1010.89 1012.41 1013.31 1014.61 1015.33 1016.12
1019.18 1018.75 1018.26 1017.72 1017.03 1016.22 1015.55 1014.94 1014.37 1013.73 1013.23 1012.70 1012.05 1011.45 1011.00 1010.67 1009.22 1005.31 1004.22 1004.32 1004.56 1004.58 1004.58 1004.38 1003.88 1003.71 1003.81 1002.84 1003.02 1003.33 1003.13 1002.81 1003.16 1003.54 1004.08 1004.77 1006.27 1007.75 1009.38 1011.50 1012.22 1013.07 1014.19 1015.04 1015.86
1019.14 1018.69 1018.18 1017.66 1017.16 1016.57 1015.87 1015.09 1014.29 1013.65 1013.07 1012.61 1012.02 1011.41 1010.72 1010.31 1007.90 1004.38 1004.10 1004.19 1004.28 1004.13 1004.71 1004.09 1003.56 1003.33 1002.89 1003.22 1003.15 1002.57 1002.65 1002.90 1003.37 1003.72 1004.28 1005.59 1006.45 1008.04 1009.20 1010.84 1012.29 1013.26 1014.05 1014.97 1015.77
1019.00 1018.54 1018.03 1017.44 1016.89 1016.29 1015.61 1014.97 1014.25 1013.61 1013.06 1012.63 1012.06 1011.56 1010.26 1009.55 1006.24 1003.63 1004.07 1004.26 1004.52 1004.11 1003.98 1003.92 1003.48 1003.24 1003.11 1002.59 1002.23 1002.68 1003.07 1003.21 1003.43 1003.99 1004.90 1005.77 1007.28 1008.53 1010.20 1011.26 1012.41 1013.39 1014.22 1014.84 1015.34
1018.97 1018.37 1017.79 1017.19 1016.49 1015.91 1015.28 1014.57 1013.91 1013.19 1012.66 1012.37 1012.00 1011.71 1011.02 1008.46 1004.29 1003.42 1003.61 1004.02 1003.73 1003.75 1003.21 1003.24 1002.88 1002.57 1002.82 1002.54 1002.68 1003.16 1003.41 1003.72 1003.98 1004.62 1005.41 1006.70 1007.91 1008.91 1011.03 1011.74 1012.56 1013.36 1013.98 1014.53 1015.16
1019.07 1018.43 1017.69 1016.93 1016.21 1015.48 1014.80 1014.10 1013.37 1012.79 1012.19 1011.89 1011.81 1011.33 1009.75 1005.88 1003.80 1003.26 1003.86 1003.38 1002.81 1002.86 1002.86 1002.32 1002.13 1002.67 1002.45 1003.55 1003.94 1003.80 1003.97 1004.19 1004.16 1004.42 1005.58 1006.87 1008.65 1009.96 1010.98 1011.95 1012.67 1013.27 1013.77 1014.38 1015.03
1019.11 1018.42 1017.75 1016.90 1015.97 1015.19 1014.36 1013.47 1012.65 1012.01 1011.58 1011.37 1011.43 1010.83 1008.14 1004.48 1003.64 1003.26 1003.00 1002.85 1002.26 1002.24 1002.28 1001.90 1001.85 1002.45 1003.72 1004.37 1004.69 1005.30 1005.62 1005.25 1004.38 1004.41 1005.35 1006.04 1008.84 1009.95 1010.84 1011.57 1012.36 1012.87 1013.42 1014.00 1014.49
1019.10 1018.44 1017.66 1016.84 1015.90 1014.88 1013.97 1012.74 1011.41 1011.07 1010.78 1010.93 1010.98 1010.07 1006.32 1003.33 1003.33 1002.56 1002.84 1002.71 1002.34 1002.06 1001.83 1001.73 1001.86 1002.51 1004.70 1005.12 1006.64 1007.45 1006.79 1006.27 1005.26 1004.34 1004.53 1005.59 1008.47 1009.49 1010.21 1011.20 1011.83 1012.44 1013.03 1013.54 1013.96
1019.23 1018.42 1017.62 1016.66 1015.65 1014.82 1013.58 1011.61 1009.78 1010.51 1010.22 1010.09 1009.62 1008.96 1005.11 1002.89 1001.98 1001.68 1001.92 1002.25 1002.33 1002.19 1001.99 1002.12 1002.40 1002.81 1004.16 1005.55 1006.80 1007.37 1006.95 1006.70 1006.11 1005.45 1005.04 1005.78 1007.16 1008.57 1009.16 1009.99 1010.82 1011.73 1012.36 1012.91 1013.21
1019.28 1018.53 1017.59 1016.45 1015.35 1014.58 1013.84 1011.50 1010.13 1010.26 1009.48 1007.99 1006.76 1005.18 1002.39 1001.80 1000.99 1001.20 1001.38 1001.83 1001.98 1002.23 1002.33 1002.23 1002.94 1002.91 1003.75 1003.97 1004.53 1006.29 1006.73 1006.72 1005.19 1006.04 1005.50 1005.86 1006.83 1007.75 1008.25 1008.92 1009.87 1010.68 1011.42 1012.04 1012.33
1019.14 1018.53 1017.66 1016.32 1015.00 1013.95 1013.90 1012.56 1010.16 1009.30 1007.74 1006.45 1005.54 1004.65 1003.03 1002.49 1001.93 1000.63 1000.74 1001.61 1001.93 1002.16 1002.27 1002.46 1002.22 1002.03 1002.25 1003.24 1003.16 1005.58 1006.79 1006.05 1005.42 1004.66 1005.40 1005.02 1006.14 1006.76 1007.11 1007.55 1008.20 1009.14 1010.15 1010.78 1011.55
1019.25 1018.52 1017.69 1016.29 1014.50 1013.34 1013.13 1011.51 1009.54 1008.78 1007.80 1004.76 1003.77 1002.91 1002.00 1002.19 1001.26 1000.24 1000.11 1000.75 1001.37 1001.85 1001.89 1001.87 1001.48 1001.29 1001.35 1001.75 1003.26 1004.54 1004.90 1004.82 1004.22 1003.25 1003.75 1004.33 1006.10 1006.26 1006.16 1006.47 1007.27 1007.99 1008.66 1009.35 1010.22
1019.21 1018.66 1017.93 1016.65 1014.06 1014.31 1012.68 1011.07 1010.00 1009.31 1007.87 1003.34 1001.38 1000.14 1000.88 1001.23 1000.34 999.57 999.29 1000.08 1000.76 1000.96 1001.45 1001.22 1000.82 1000.46 1000.32 1000.66 1001.04 1002.79 1003.00 1002.26 1002.51 1003.17 1002.62 1003.17 1005.48 1005.81 1005.44 1005.63 1006.37 1007.13 1007.82 1008.41 1009.23
1019.17 1018.65 1018.17 1017.87 1016.90 1015.01 1013.12 1011.70 1010.39 1009.80 1007.19 1000.02 998.02 997.16 997.94 999.42 998.67 998.53 998.69 999.49 999.92 1000.22 1001.01 1000.17 999.92 999.66 999.42 999.04 999.45 1000.08 1000.80 1000.23 1000.58 1001.65 1002.13 1002.46 1003.77 1004.43 1004.77 1005.08 1005.34 1006.02 1006.64 1007.27 1008.16
1019.12 1018.61 1018.19 1016.96 1016.29 1014.65 1013.68 1012.46 1010.93 1009.81 1004.84 999.29 996.21 996.37 997.84 998.55 998.72 998.13 998.38 999.08 999.57 1000.14 1000.05 999.83 999.14 998.83 998.54 998.05 998.04 998.45 999.45 1000.01 1000.51 1001.65 1002.37 1002.08 1002.50 1003.30 1003.33 1003.23 1003.91 1004.61 1005.29 1006.11 1007.28
1019.02 1018.37 1018.17 1017.57 1015.75 1014.45 1014.27 1013.09 1011.55 1007.61 1002.26 998.81 996.52 996.42 997.10 997.60 998.29 998.26 998.31 998.66 998.66 999.53 999.56 999.46 998.81 998.07 997.78 997.88 997.57 998.07 999.52 1000.91 1002.03 1002.78 1002.49 1001.22 1001.63 1000.90 1001.21 1001.30 1001.95 1003.07 1004.09 1004.93 1006.02
1018.79 1017.98 1016.45 1015.61 1015.01 1014.66 1014.44 1013.51 1010.46 1004.74 1002.08 998.02 996.45 996.74 997.09 997.47 997.85 997.84 998.12 998.24 998.33 998.88 999.52 999.20 998.62 997.39 996.86 997.34 997.66 998.31 999.45 1000.69 1002.07 1002.71 1001.97 1000.88 1000.29 999.21 999.04 999.67 1000.41 1001.29 1002.44 1003.80 1004.92
1018.61 1016.90 1015.01 1013.43 1013.61 1014.12 1014.42 1012.40 1007.79 1004.94 1002.24 999.98 998.56 997.48 997.04 997.03 997.23 997.61 997.56 997.40 997.40 997.91 998.56 998.60 997.94 997.15 996.70 996.68 997.17 997.98 998.88 999.80 1001.26 1001.68 1002.17 1000.56 999.42 998.35 998.46 999.11 999.72 1000.76 1001.76 1002.78 1003.82
1018.96 1016.70 1013.85 1012.35 1012.75 1012.94 1013.21 1010.62 1007.83 1005.34 1003.55 1002.67 1001.43 998.84 997.94 997.03 997.04 997.03 996.73 996.24 996.60 996.96 997.72 997.92 998.28 997.12 996.54 996.57 996.44 997.22 998.44 999.73 1000.95 1002.29 1002.46 1001.25 1000.28 998.93 998.86 998.87 999.28 1000.00 1000.83 1001.72 1002.59
1018.69 1015.82 1011.98 1010.96 1011.71 1012.37 1011.09 1010.29 1008.93 1007.30 1006.02 1004.94 1002.80 1001.69 1000.68 999.57 996.83 996.30 995.93 995.71 995.63 995.95 996.93 997.42 997.80 997.15 996.76 996.01 996.67 997.18 998.14 999.46 1000.54 1001.67 1002.36 1001.80 1000.54 998.57 998.20 998.12 998.60 999.10 999.78 1000.68 1001.61
1017.74 1015.40 1011.71 1011.09 1011.68 1011.37 1010.94 1010.42 1009.85 1008.18 1005.71 1005.96 1004.60 1002.77 1001.86 1000.48 999.13 996.81 994.52 994.27 994.05 994.91 995.84 996.11 996.86 997.34 996.20 995.79 996.10 996.70 997.93 999.30 1001.07 1001.61 1001.76 1001.20 999.76 997.54 998.12 997.63 997.63 998.13 999.04 999.73 1000.41
1017.98 1015.40 1012.78 1012.00 1012.21 1012.07 1011.00 1010.12 1009.21 1008.28 1005.97 1005.88 1004.47 1002.79 1002.01 1001.18 1000.47 996.07 993.47 993.04 993.55 993.73 994.40 995.41 996.43 997.16 996.72 996.07 995.66 996.15 997.45 998.42 999.59 1000.52 1000.87 1001.06 999.10 996.37 997.05 997.21 997.31 997.80 998.65 999.29 999.99
1018.37 1015.74 1014.44 1013.67 1013.55 1013.43 1012.46 1010.68 1008.82 1007.76 1005.91 1005.68 1004.66 1004.17 1002.65 1000.91 999.79 997.23 994.16 992.31 992.23 992.69 993.57 994.86 995.77 996.32 996.21 995.56 995.69 996.22 996.89 997.59 998.65 999.90 1000.00 999.69 998.99 997.50 997.00 997.15 997.52 997.76 998.18 999.06 999.80
1018.23 1017.38 1016.97 1016.13 1014.95 1014.46 1013.48 1011.89 1009.64 1007.02 1005.50 1004.91 1003.99 1003.30 1002.65 1001.28 999.51 997.23 994.72 992.99 991.66 991.98 993.02 994.14 994.88 995.68 995.62 995.31 995.11 995.22 995.99 996.69 997.46 998.11 999.08 998.25 998.40 997.36 997.07 997.19 997.38 997.83 998.36 999.12 1000.07
1018.73 1018.46 1017.60 1016.83 1015.63 1014.72 1013.60 1011.46 1009.46 1007.12 1005.57 1003.98 1002.97 1002.33 1001.85 1000.62 999.47 997.69 995.93 994.39 992.61 991.41 992.41 993.23 994.45 995.36 995.73 995.30 994.70 994.52 994.57 995.37 996.13 996.59 997.20 996.98 996.95 996.02 995.94 996.69 997.17 997.70 998.56 999.42 999.96
1018.45 1018.11 1017.72 1016.37 1015.39 1015.16 1013.57 1011.87 1009.78 1007.89 1005.22 1004.01 1002.64 1001.65 1000.48 999.57 998.31 997.07 996.02 995.03 993.76 993.11 991.64 992.52 993.98 995.12 995.66 995.35 995.20 994.76 993.86 994.01 994.80 995.16 995.65 995.93 995.92 995.72 996.12 996.60 997.07 997.75 998.33 999.16 999.98
Wind_Speed
21 22 21 20 20 21 21 21 21 21 21 21 20 17 18 18 21 4 6 7 5 12 5 6 11 14 14 12 15 13 4 1 12 13 14 21 22 16 15 16 7 5 18 17 18
20 20 21 21 21 21 21 21 21 21 20 21 20 19 17 16 6 10 9 5 5 9 4 7 12 12 3 2 4 5 5 8 10 7 12 19 23 19 18 18 19 22 22 21 19
20 20 20 21 22 23 22 22 22 22 21 20 20 20 18 15 6 6 5 7 6 8 5 8 11 14 11 3 3 4 4 10 12 13 14 5 22 20 20 17 21 26 24 21 17
21 21 21 21 22 22 21 22 23 22 22 20 20 19 19 4 4 4 8 8 9 8 7 7 9 9 13 7 2 8 11 11 8 12 8 19 19 13 16 20 21 21 22 20 18
22 22 23 23 23 23 23 22 22 21 20 19 18 15 8 4 11 5 7 6 5 4 6 8 13 14 9 5 9 12 8 9 11 13 17 20 18 16 19 20 22 21 20 18 17
21 22 23 23 24 23 23 23 23 22 20 18 15 13 3 10 9 13 10 7 9 6 8 9 9 14 4 8 8 1 9 9 7 17 18 19 11 14 18 18 19 19 17 16 13
21 21 23 24 25 26 26 25 25 23 21 18 11 6 6 22 11 17 13 11 7 7 11 12 13 8 8 5 12 4 11 9 8 13 16 23 16 16 20 17 16 16 14 15 13
21 22 22 25 26 27 27 28 28 25 20 15 7 5 10 9 13 19 19 18 7 11 10 11 10 7 10 3 9 7 7 1 11 15 19 11 13 16 18 17 17 17 15 15 16
21 22 24 24 26 28 28 31 31 22 15 7 4 5 12 10 9 14 12 14 9 10 10 11 8 4 8 11 2 5 2 4 9 5 22 8 14 17 19 18 15 14 13 13 12
21 22 24 26 27 27 30 33 23 7 7 7 8 5 9 11 11 11 11 16 14 10 10 8 5 4 2 5 5 5 4 3 8 10 2 12 11 20 20 19 17 15 14 14 15
20 22 24 27 28 28 19 10 4 1 4 9 9 11 18 10 7 15 13 12 10 9 8 9 4 8 7 9 10 7 11 10 16 9 9 7 20 19 20 18 18 18 16 16 17
22 22 24 29 30 30 8 4 10 7 11 13 21 23 27 21 18 17 12 11 11 14 9 7 13 14 12 20 15 18 18 23 23 19 8 10 16 19 19 20 21 21 18 18 17
20 23 24 28 32 13 14 13 13 14 6 13 20 18 23 10 24 20 13 15 10 12 15 12 12 16 19 13 16 15 23 24 20 17 20 13 9 15 13 13 18 19 19 15 17
20 20 22 29 8 12 7 22 19 14 5 10 10 15 16 17 19 22 14 12 11 18 16 12 17 18 19 16 25 18 20 25 26 15 5 19 7 11 14 12 18 19 17 16 17
20 19 19 15 9 6 12 19 16 7 5 10 13 10 18 23 6 16 13 13 16 16 10 15 15 21 18 21 18 16 36 15 5 8 4 7 9 8 13 11 16 20 18 17 19
19 20 18 10 7 13 15 20 10 2 11 9 3 16 16 18 27 9 16 10 11 12 15 14 11 16 19 19 12 10 12 6 4 2 3 9 8 13 17 15 17 21 19 19 20
19 22 15 9 5 12 14 9 2 8 6 9 7 21 22 12 23 24 19 18 18 18 16 15 22 20 21 13 13 5 6 2 4 3 8 8 6 10 20 20 20 24 21 21 21
20 24 11 10 8 10 8 3 10 11 17 8 3 20 20 18 21 23 17 19 19 12 10 12 16 25 15 15 11 9 8 7 6 6 10 1 6 7 20 22 22 24 24 22 22
23 8 11 10 13 9 4 9 8 6 18 19 11 14 10 17 13 19 24 22 20 23 16 13 11 15 20 15 9 8 10 10 4 4 1 4 2 6 20 17 21 22 22 25 22
7 9 10 12 12 8 8 16 10 14 18 17 15 13 8 20 21 22 20 18 23 26 18 11 7 15 19 14 13 10 7 5 3 1 1 6 4 7 9 17 19 24 24 24 23
4 6 8 14 10 7 14 16 14 24 23 7 9 15 15 13 15 20 23 21 26 23 23 20 5 13 17 18 13 5 7 3 6 7 5 2 5 13 11 12 19 20 24 23 24
5 6 9 10 5 8 13 17 20 24 28 21 24 24 21 22 22 22 24 27 20 24 29 26 6 12 19 7 11 10 9 8 7 8 4 5 8 9 10 14 12 12 21 23 23
6 9 9 7 2 8 13 21 22 21 29 12 16 14 19 24 13 17 24 26 29 29 22 24 15 9 9 14 7 14 9 7 5 3 7 5 9 2 12 9 9 11 13 20 21
5 5 5 5 5 11 17 16 19 22 30 25 25 23 24 23 20 18 11 14 30 24 23 21 13 12 13 9 10 14 17 11 10 5 5 7 8 2 4 10 8 9 9 14 17
3 2 2 5 8 16 15 14 26 22 23 19 21 26 24 22 24 24 10 15 20 23 22 16 19 18 9 13 10 22 21 18 12 15 8 14 9 8 8 10 10 10 9 10 10
3 3 2 9 14 13 14 14 23 23 19 18 23 23 21 22 20 17 9 5 11 21 16 21 13 16 15 13 15 22 25 22 19 17 13 18 5 9 16 7 9 12 11 10 10
5 5 3 6 9 4 9 11 24 18 19 15 20 19 23 18 14 14 13 14 17 16 22 20 14 10 19 14 12 9 21 22 17 11 20 14 9 8 4 5 9 9 12 12 14
Wind_Direction
5 2 360 355 352 349 346 342 340 338 335 331 329 330 325 322 308 171 239 234 186 181 169 256 210 236 248 254 249 184 270 355 106 102 122 106 108 107 113 130 64 140 132 141 158
5 1 357 354 350 347 343 340 336 334 332 329 328 328 326 330 288 253 238 175 172 166 220 261 295 297 231 288 119 144 202 96 106 119 128 129 126 128 109 100 105 101 119 139 148
1 359 357 354 349 344 340 336 333 329 328 327 327 326 324 320 293 252 166 169 187 214 283 294 288 292 297 224 141 202 142 69 84 87 99 134 126 129 122 124 136 140 145 146 144
357 355 352 349 346 341 337 332 328 326 324 325 325 324 318 272 287 128 184 200 189 230 255 288 282 298 286 189 262 86 87 95 120 117 130 90 101 134 127 134 137 140 145 148 157
352 350 347 343 340 336 333 328 324 320 317 320 322 327 342 253 247 225 176 190 181 233 235 263 284 295 329 130 76 88 99 89 96 93 86 83 92 100 103 124 137 144 152 159 168
349 345 343 339 335 333 329 325 321 316 313 315 318 321 240 251 259 267 201 171 229 204 268 255 258 280 318 92 66 26 106 101 125 105 107 114 108 115 120 129 141 150 159 162 151
346 342 339 336 332 329 327 322 317 310 305 306 309 289 255 238 292 303 304 262 243 257 255 255 267 313 315 96 16 31 131 145 156 145 133 111 108 121 132 137 146 159 165 151 176
343 340 337 333 329 326 323 318 311 304 295 292 287 263 250 259 254 262 270 284 261 251 261 266 295 303 102 49 14 13 4 40 181 162 152 122 135 138 141 152 159 164 169 169 182
340 338 335 331 326 324 321 314 302 293 276 256 247 225 267 264 224 244 245 263 270 260 263 272 284 289 116 90 37 330 282 345 327 231 166 134 141 157 157 159 167 161 171 174 173
338 336 333 328 324 324 321 308 286 322 214 219 257 296 254 251 238 209 219 241 239 257 242 236 262 253 111 142 177 302 354 317 236 28 109 133 144 161 168 162 163 164 171 180 185
336 334 331 326 322 321 333 340 354 20 231 224 206 220 280 268 214 227 205 220 243 250 236 231 204 230 173 153 166 210 336 302 285 158 230 142 151 172 174 164 167 172 179 185 192
334 334 331 324 320 316 300 268 325 297 294 263 252 250 264 275 286 254 195 194 211 227 235 233 223 234 234 183 165 163 179 244 268 266 231 157 170 180 181 174 172 171 179 185 188
333 332 333 326 317 310 325 297 301 337 272 274 239 245 238 223 255 263 188 194 204 218 227 212 231 224 244 214 143 180 201 225 234 261 220 129 163 178 199 167 169 171 177 182 168
329 331 333 335 327 337 293 345 332 323 286 263 213 233 228 230 253 249 198 196 211 213 224 229 231 235 231 229 175 176 224 237 233 224 205 152 176 192 194 166 169 167 177 180 170
322 325 330 327 291 298 319 318 302 312 285 236 216 188 188 203 130 234 214 205 214 211 196 225 204 233 237 237 193 204 195 225 153 185 172 215 110 202 181 167 170 170 177 174 168
316 317 327 318 305 278 313 317 305 230 239 263 116 175 162 197 216 209 208 221 216 220 235 230 231 229 233 246 236 211 218 273 164 131 12 222 140 172 181 178 175 169 174 166 168
313 309 304 286 252 324 313 309 230 227 212 261 214 163 179 177 200 220 200 215 197 199 222 226 235 241 236 250 257 205 121 3 9 344 226 245 146 191 189 176 172 170 176 170 169
311 305 265 243 255 270 292 268 236 217 243 278 201 171 184 185 204 210 216 211 207 199 207 206 224 229 239 223 213 208 181 163 175 210 244 225 204 231 176 172 175 169 172 168 170
311 284 276 255 222 209 241 221 210 226 209 255 318 201 189 188 187 209 218 209 209 206 204 210 226 232 235 243 203 239 209 220 222 255 4 264 9 56 159 169 169 167 166 170 173
316 289 260 253 251 231 221 241 247 275 308 328 285 274 214 201 200 195 213 214 211 202 213 236 203 226 238 238 243 160 197 261 341 122 292 278 8 198 167 172 166 168 173 174 175
269 279 276 281 179 228 231 238 263 274 285 296 336 312 308 301 233 209 209 233 198 197 211 233 200 220 229 221 205 195 232 268 169 143 178 226 195 244 184 174 168 176 173 174 178
292 274 288 323 256 218 241 256 259 275 281 287 296 290 287 298 297 283 206 209 199 204 202 223 187 232 220 224 203 174 202 190 131 273 218 148 267 262 194 175 163 169 173 177 177
291 287 285 328 266 298 266 242 254 260 268 271 260 289 303 298 304 291 220 198 217 196 194 212 225 245 261 214 208 192 213 214 186 151 221 151 266 279 159 162 171 161 153 174 177
286 308 348 320 356 297 328 313 261 248 255 259 271 281 286 288 280 277 295 218 203 204 198 197 220 195 228 217 195 191 206 211 208 197 235 215 249 100 117 136 130 141 142 162 177
258 281 219 329 331 315 294 280 289 276 255 242 257 254 265 281 286 288 287 283 219 205 194 190 218 226 240 255 219 182 199 213 214 227 169 241 179 210 160 147 148 154 137 126 126
312 346 314 275 272 305 310 292 277 275 277 273 235 251 258 262 267 296 337 352 272 195 185 197 207 218 243 250 262 199 190 201 219 220 227 246 216 219 165 175 164 158 146 151 132
314 301 290 279 294 340 268 291 304 285 308 279 307 239 250 266 294 297 289 278 265 276 188 192 190 192 230 233 256 260 203 194 211 226 216 227 208 196 143 138 170 152 152 160 143